Location: Haliburton Scout Reserve
(45.0900°N, 78.3200°W)
Time: 02:17:57
(UTC-04:00)

DIWATA 2B (PO-101) - Pass Details

Date: 26 May 2022
Orbit: 585 x 597 km, 98.0° (Epoch: 27 June)

Event Time Altitude Azimuth Distance (km) Brightness Sun altitude
Exits shadow 02:15:30 18° 115° (ESE) 1,454 ? -22.1°
Maximum altitude 02:17:44 30° 68° (ENE) 1,077 ? -22.0°
Drops below altitude 10° 02:21:22 10° 7° (N) 1,926 ? -21.8°
Sets 02:23:43 0° 357° (N) 2,834 ? -21.7°
